CW4320 Penacastillo ES current weather conditions

sailwx.info

Wind from 286 at 5 knots

Air temperature 23.9° C
Dewpoint 18.7° C

Last reported at 2018-Jul-16 15:05 UTC.
Time now 2018-Jul-16 15:53 UTC

Location: N 43°27' W 003°53'.
View on Google Maps.

See reports from other nearby stations

  
Tides and Currents Weather Stations Pressure Air Temp Water Temp Dewpoint Dewpoint Depression Visibility Wind Speed Wind Dir Waves Ship Positions
date/time (UTC)wind fromknots sea level pressurealtimeterstation pressurevisibilityair tempwater tempwave heightnotes
2018-Jul-16 15:05 286 5 23.9
2018-Jul-16 15:00 306 4 23.9
2018-Jul-16 14:55 290 3 23.9
2018-Jul-16 14:50 271 5 23.3
2018-Jul-16 14:45 266 6 23.3
2018-Jul-16 14:40 295 5 23.3
2018-Jul-16 14:35 282 5 23.3
2018-Jul-16 14:30 274 6 23.3
2018-Jul-16 14:25 321 6 23.3
2018-Jul-16 14:20 297 6 23.3
2018-Jul-16 14:15 328 6 23.9
2018-Jul-16 14:10 309 6 23.3
2018-Jul-16 14:05 304 6 23.3
2018-Jul-16 14:00 277 6 23.3
2018-Jul-16 13:55 295 6 23.3
2018-Jul-16 13:45 264 6 23.3
2018-Jul-16 13:40 294 6 23.3
2018-Jul-16 13:35 289 6 23.3
2018-Jul-16 13:30 297 6 23.3
2018-Jul-16 13:25 329 6 23.3
2018-Jul-16 13:20 276 4 23.3
2018-Jul-16 13:15 323 4 22.8
2018-Jul-16 13:10 288 5 22.8
2018-Jul-16 13:05 280 6 22.8
2018-Jul-16 13:00 285 6 22.8
2018-Jul-16 12:55 254 5 22.8
2018-Jul-16 12:50 278 6 22.2
2018-Jul-16 12:45 290 6 21.7
2018-Jul-16 12:40 316 6 21.7
2018-Jul-16 12:35 330 6 21.7
2018-Jul-16 12:30 314 5 21.1
2018-Jul-16 12:25 304 5 21.1
2018-Jul-16 12:20 285 6 21.1
2018-Jul-16 12:15 289 5 21.1
2018-Jul-16 12:10 254 6 21.1
2018-Jul-16 12:05 193 7 21.1
2018-Jul-16 12:00 271 9 gusting 16 21.1
2018-Jul-16 11:55 266 3 gusting 13 20.6
2018-Jul-16 11:50 255 7 gusting 13 20.6
2018-Jul-16 11:45 229 4 gusting 13 20.6
2018-Jul-16 11:40 288 3 gusting 15 20.6
2018-Jul-16 11:35 360 7 gusting 15 20.6
2018-Jul-16 11:30 293 4 gusting 10 20.6
2018-Jul-16 11:25 251 4 gusting 13 20.0
2018-Jul-16 11:20 317 5 gusting 13 20.0
2018-Jul-16 11:10 277 6 gusting 17 19.4
2018-Jul-16 11:05 243 4 gusting 17 19.4
2018-Jul-16 11:00 222 7 gusting 13 19.4
2018-Jul-16 10:55 293 0 gusting 13 19.4
2018-Jul-16 10:50 309 0 gusting 13 19.4
2018-Jul-16 10:45 293 4 gusting 13 19.4
2018-Jul-16 10:40 323 2 gusting 11 18.9
2018-Jul-16 10:35 218 1 gusting 10 18.9
2018-Jul-16 10:30 273 4 gusting 11 19.4
2018-Jul-16 10:25 335 4 gusting 13 19.4
2018-Jul-16 10:20 271 5 gusting 14 19.4
2018-Jul-16 10:15 296 5 gusting 14 18.9
2018-Jul-16 10:10 288 5 gusting 13 18.9
2018-Jul-16 10:05 248 6 gusting 13 18.9
2018-Jul-16 10:00 291 3 gusting 14 18.9
2018-Jul-16 09:55 233 3 gusting 15 18.9
2018-Jul-16 09:50 284 6 gusting 15 18.9
2018-Jul-16 09:45 254 3 gusting 7 18.9
2018-Jul-16 09:40 257 3 gusting 9 18.9
2018-Jul-16 09:35 248 4 gusting 10 18.9
2018-Jul-16 09:30 236 1 gusting 10 18.9
2018-Jul-16 09:25 241 2 gusting 9 18.9
2018-Jul-16 09:20 207 4 gusting 8 18.9
2018-Jul-16 09:15 298 1 gusting 6 18.9
2018-Jul-16 09:11 304 0 gusting 10 18.9
2018-Jul-16 09:05 302 5 gusting 10 18.3
2018-Jul-16 09:00 269 3 gusting 10 18.3
2018-Jul-16 08:55 192 0 gusting 9 18.3
2018-Jul-16 08:50 305 0 gusting 12 18.3
2018-Jul-16 08:45 248 3 gusting 12 18.3
2018-Jul-16 08:40 250 0 gusting 10 17.8
2018-Jul-16 08:35 228 3 gusting 12 17.8
2018-Jul-16 08:30 244 4 gusting 13 17.8
2018-Jul-16 08:25 242 3 gusting 13 17.8
2018-Jul-16 08:20 277 2 gusting 6 17.8
2018-Jul-16 08:15 222 2 gusting 12 17.8
2018-Jul-16 08:10 237 4 gusting 12 17.8
2018-Jul-16 08:05 187 1 gusting 10 17.8
2018-Jul-16 08:00 248 3 gusting 10 18.3
2018-Jul-16 07:55 281 0 gusting 10 18.3
2018-Jul-16 07:50 339 3 gusting 11 18.3
2018-Jul-16 07:45 276 5 gusting 11 18.3
2018-Jul-16 07:40 244 3 gusting 12 18.3
2018-Jul-16 07:35 262 3 gusting 12 18.3
2018-Jul-16 07:30 253 6 gusting 13 18.3
2018-Jul-16 07:25 231 7 gusting 14 18.3
2018-Jul-16 07:20 260 7 gusting 14 18.3
2018-Jul-16 07:15 240 6 gusting 13 18.3
2018-Jul-16 07:10 267 4 gusting 12 18.3
2018-Jul-16 07:05 250 2 gusting 13 18.3
2018-Jul-16 07:00 245 4 gusting 13 18.3
2018-Jul-16 06:55 243 5 gusting 8 18.9
2018-Jul-16 06:50 238 3 gusting 6 18.9
2018-Jul-16 06:45 236 1 gusting 3 18.9
2018-Jul-16 06:40 234 2 18.9
2018-Jul-16 06:35 238 2 18.9
2018-Jul-16 06:30 235 1 18.9
2018-Jul-16 06:25 253 2 19.4
2018-Jul-16 06:20 254 4 19.4
2018-Jul-16 06:15 260 6 19.4
2018-Jul-16 06:10 239 6 19.4
2018-Jul-16 06:05 319 6 19.4
2018-Jul-16 06:00 294 4 19.4
2018-Jul-16 05:55 319 4 19.4
2018-Jul-16 05:50 226 6 19.4
2018-Jul-16 05:45 319 7 19.4
2018-Jul-16 05:40 273 8 20.0
2018-Jul-16 05:35 284 6 20.0
2018-Jul-16 05:30 279 5 20.0
2018-Jul-16 05:25 205 6 20.0
2018-Jul-16 05:20 265 6 20.0
2018-Jul-16 05:15 274 6 20.0
2018-Jul-16 05:10 290 5 20.0
2018-Jul-16 05:05 291 4 20.0
2018-Jul-16 05:00 299 4 20.0
2018-Jul-16 04:55 280 3 19.4
2018-Jul-16 04:50 272 3 19.4
2018-Jul-16 04:45 160 3 19.4
2018-Jul-16 04:40 248 3 19.4
2018-Jul-16 04:35 233 3 19.4
2018-Jul-16 04:30 281 3 19.4
2018-Jul-16 04:25 245 2 19.4
2018-Jul-16 04:20 304 3 18.9
2018-Jul-16 04:15 271 2 18.9
2018-Jul-16 04:10 213 3 19.4
2018-Jul-16 04:05 206 4 19.4
2018-Jul-16 04:00 233 4 19.4
2018-Jul-16 03:55 268 4 19.4
2018-Jul-16 03:50 243 3 19.4
2018-Jul-16 03:45 217 3 19.4
2018-Jul-16 03:40 240 4 19.4
2018-Jul-16 03:35 275 4 20.0
2018-Jul-16 03:30 245 3 20.0
2018-Jul-16 03:25 220 4 20.0
2018-Jul-16 03:20 266 4 20.0
2018-Jul-16 03:15 292 4 20.0
2018-Jul-16 03:10 259 5 20.0
2018-Jul-16 03:05 249 5 19.4
2018-Jul-16 03:00 311 6 19.4
2018-Jul-16 02:55 257 6 20.0
2018-Jul-16 02:50 317 6 20.0
2018-Jul-16 02:45 285 8 20.0
2018-Jul-16 02:40 257 7 20.0
2018-Jul-16 02:35 298 6 20.0
2018-Jul-16 02:30 360 6 20.0
2018-Jul-16 02:25 276 6 20.6
2018-Jul-16 02:20 266 6 20.6
2018-Jul-16 02:15 287 6 20.0
2018-Jul-16 02:10 272 5 20.0
2018-Jul-16 02:05 274 6 20.6
2018-Jul-16 02:00 310 6 20.6
2018-Jul-16 01:55 319 6 20.6
2018-Jul-16 01:50 345 6 20.6
2018-Jul-16 01:45 259 4 20.6
2018-Jul-16 01:40 360 5 20.6
2018-Jul-16 01:35 172 6 20.6
2018-Jul-16 01:30 283 6 20.6
2018-Jul-16 01:25 269 6 20.6
2018-Jul-16 01:20 259 6 20.6
2018-Jul-16 01:15 260 6 20.6
2018-Jul-16 01:10 294 4 20.6
2018-Jul-16 01:05 286 4 20.6
2018-Jul-16 01:00 313 6 20.6
2018-Jul-16 00:55 279 6 20.6
2018-Jul-16 00:50 262 5 20.6
2018-Jul-16 00:45 263 6 20.6
2018-Jul-16 00:40 258 6 20.6
2018-Jul-16 00:35 273 6 20.6
2018-Jul-16 00:30 360 6 20.6
2018-Jul-16 00:25 274 6 20.6
2018-Jul-16 00:20 285 6 20.6
2018-Jul-16 00:15 301 5 20.6
2018-Jul-16 00:10 305 5 20.6
2018-Jul-16 00:05 217 4 20.6
2018-Jul-16 00:00 262 5 20.6
2018-Jul-15 23:55 344 6 20.6
2018-Jul-15 23:50 348 6 20.6
2018-Jul-15 23:45 287 6 20.6
2018-Jul-15 23:40 289 5 20.6
2018-Jul-15 23:35 248 5 20.6
2018-Jul-15 23:30 259 5 20.6
2018-Jul-15 23:25 290 3 20.6
2018-Jul-15 23:20 285 3 20.6
2018-Jul-15 23:15 266 3 20.6
2018-Jul-15 23:10 303 2 20.6
2018-Jul-15 23:05 347 3 20.6
2018-Jul-15 23:00 259 4 20.6
2018-Jul-15 22:55 255 4 20.6
2018-Jul-15 22:50 266 4 20.6
2018-Jul-15 22:45 311 4 20.6
2018-Jul-15 22:40 240 5 20.6
2018-Jul-15 22:35 292 5 20.6
2018-Jul-15 22:30 286 6 20.6
2018-Jul-15 22:25 272 6 20.6
2018-Jul-15 22:20 287 6 20.6
2018-Jul-15 22:15 298 6 20.6
2018-Jul-15 22:10 230 5 20.6
2018-Jul-15 22:05 257 6 20.6
2018-Jul-15 22:00 264 5 20.6
2018-Jul-15 21:55 254 5 20.6
2018-Jul-15 21:50 238 5 20.6
2018-Jul-15 21:45 287 4 gusting 13 20.6
2018-Jul-15 21:40 348 5 gusting 13 20.6
2018-Jul-15 21:35 243 6 gusting 13 20.6
2018-Jul-15 21:30 274 6 gusting 13 20.6
2018-Jul-15 21:25 295 6 gusting 15 20.6
2018-Jul-15 21:20 288 5 gusting 15 20.6
2018-Jul-15 21:15 226 4 gusting 14 20.6
2018-Jul-15 21:11 319 3 gusting 15 20.6
2018-Jul-15 21:05 288 3 gusting 16 20.6
2018-Jul-15 21:00 293 5 gusting 16 21.1
2018-Jul-15 20:55 243 6 gusting 13 21.1
2018-Jul-15 20:50 222 4 gusting 12 21.1
2018-Jul-15 20:45 227 5 gusting 14 21.1
2018-Jul-15 20:40 315 4 gusting 14 21.1
2018-Jul-15 20:35 255 6 gusting 14 21.1
2018-Jul-15 20:30 304 5 gusting 12 21.1
2018-Jul-15 20:25 257 3 gusting 13 21.1
2018-Jul-15 20:20 266 6 gusting 13 20.6
2018-Jul-15 20:15 201 3 gusting 11 20.6
2018-Jul-15 20:10 271 1 gusting 6 20.6
2018-Jul-15 20:05 209 3 gusting 7 21.1
2018-Jul-15 20:00 242 3 gusting 8 21.1
2018-Jul-15 19:55 245 3 gusting 9 21.1
2018-Jul-15 19:50 279 3 gusting 13 21.1
2018-Jul-15 19:45 274 8 gusting 15 21.7
2018-Jul-15 19:40 288 6 gusting 15 21.7
2018-Jul-15 19:35 279 5 gusting 14 21.7
2018-Jul-15 19:30 316 7 gusting 14 21.7
2018-Jul-15 19:25 278 6 gusting 12 21.7
2018-Jul-15 19:20 292 4 gusting 12 21.7
2018-Jul-15 19:15 273 5 gusting 14 21.7
2018-Jul-15 19:10 360 6 gusting 18 21.7
2018-Jul-15 19:05 288 8 gusting 18 22.2
2018-Jul-15 19:00 283 9 gusting 17 22.2
2018-Jul-15 18:55 314 9 gusting 17 22.2
2018-Jul-15 18:50 307 6 gusting 13 22.2
2018-Jul-15 18:45 274 8 gusting 13 22.2
2018-Jul-15 18:40 293 4 gusting 12 22.2
2018-Jul-15 18:35 266 3 gusting 11 22.2
2018-Jul-15 18:30 271 2 gusting 7 22.2
2018-Jul-15 18:25 274 2 gusting 7 22.2
2018-Jul-15 18:20 215 2 gusting 9 22.2
2018-Jul-15 18:15 255 3 gusting 9 22.2
2018-Jul-15 18:10 279 1 gusting 7 22.2
2018-Jul-15 18:00 300 3 gusting 9 22.2
2018-Jul-15 17:55 302 2 gusting 6 22.2
2018-Jul-15 17:50 262 2 gusting 13 22.2
2018-Jul-15 17:45 270 3 gusting 13 22.2
2018-Jul-15 17:40 294 3 gusting 11 22.2
2018-Jul-15 17:35 238 4 gusting 11 22.8
2018-Jul-15 17:30 257 0 gusting 10 22.8
2018-Jul-15 17:25 311 2 gusting 11 22.8
2018-Jul-15 17:20 266 0 gusting 13 22.8
2018-Jul-15 17:15 283 5 gusting 13 22.8
2018-Jul-15 17:10 289 3 gusting 13 22.8
2018-Jul-15 17:05 276 2 gusting 10 22.8
2018-Jul-15 17:00 255 3 gusting 9 22.8
2018-Jul-15 16:55 240 2 gusting 9 22.8
2018-Jul-15 16:50 198 4 gusting 8 22.8
2018-Jul-15 16:45 258 5 gusting 11 22.8
2018-Jul-15 16:40 274 4 gusting 11 22.8
2018-Jul-15 16:35 250 2 gusting 9 22.8
2018-Jul-15 16:30 291 1 gusting 9 22.8
2018-Jul-15 16:25 246 0 gusting 9 23.3
2018-Jul-15 16:20 269 3 gusting 9 23.3
2018-Jul-15 16:15 268 1 gusting 11 23.3
2018-Jul-15 16:10 281 2 gusting 13 23.3
2018-Jul-15 16:05 360 5 gusting 13 23.9
2018-Jul-15 16:00 295 4 gusting 12 23.9
2018-Jul-15 15:55 280 2 gusting 11 23.9
2018-Jul-15 15:50 298 5 gusting 11 23.9
2018-Jul-15 15:45 282 6 gusting 13 23.9
2018-Jul-15 15:35 315 7 gusting 11 23.9
2018-Jul-15 15:30 318 6 gusting 11 23.9
2018-Jul-15 15:25 281 8 gusting 12 24.4
2018-Jul-15 15:20 309 6 gusting 14 24.4
2018-Jul-15 15:15 288 8 gusting 14 25.0
2018-Jul-15 15:10 206 6 gusting 13 25.0
2018-Jul-15 15:05 324 6 gusting 14 25.0
2018-Jul-15 15:00 281 6 gusting 14 25.0
2018-Jul-15 14:55 320 6 gusting 12 25.6
2018-Jul-15 14:50 290 4 gusting 12 25.6
2018-Jul-15 14:45 280 5 gusting 13 25.6
2018-Jul-15 14:40 316 5 gusting 13 25.0
2018-Jul-15 14:35 300 6 gusting 13 25.0
2018-Jul-15 14:30 297 6 gusting 12 24.4
2018-Jul-15 14:25 265 5 gusting 13 24.4
2018-Jul-15 14:20 281 4 gusting 13 24.4
2018-Jul-15 14:15 265 7 gusting 13 24.4
2018-Jul-15 14:11 316 8 gusting 13 25.0
2018-Jul-15 14:05 290 5 gusting 13 25.0
2018-Jul-15 14:00 303 6 gusting 11 25.0
2018-Jul-15 13:55 283 7 gusting 11 25.6
2018-Jul-15 13:50 285 5 gusting 10 25.6
2018-Jul-15 13:45 319 6 gusting 10 25.6
2018-Jul-15 13:40 277 6 gusting 11 25.6
2018-Jul-15 13:35 316 6 gusting 11 26.1
2018-Jul-15 13:30 300 4 gusting 9 25.6
2018-Jul-15 13:25 265 4 gusting 12 25.6
2018-Jul-15 13:20 305 6 gusting 12 25.0
2018-Jul-15 13:15 261 5 gusting 11 25.0
2018-Jul-15 13:10 266 3 gusting 11 25.0
2018-Jul-15 13:05 303 6 gusting 12 25.0
2018-Jul-15 13:00 280 6 gusting 12 25.0
2018-Jul-15 12:55 283 4 gusting 8 25.0
2018-Jul-15 12:50 300 3 gusting 10 25.0
2018-Jul-15 12:45 285 4 gusting 10 24.4
2018-Jul-15 12:40 268 3 gusting 10 24.4
2018-Jul-15 12:35 311 5 gusting 10 24.4
2018-Jul-15 12:30 314 5 gusting 8 24.4
2018-Jul-15 12:25 284 6 gusting 10 24.4
2018-Jul-15 12:20 285 4 gusting 10 23.9
2018-Jul-15 12:15 301 3 gusting 8 23.9
2018-Jul-15 12:10 314 3 gusting 8 23.9
2018-Jul-15 12:05 282 2 gusting 9 23.3
2018-Jul-15 12:00 257 5 gusting 9 23.3
2018-Jul-15 11:55 285 4 gusting 9 23.3
2018-Jul-15 11:50 285 4 gusting 9 23.3
2018-Jul-15 11:45 281 5 gusting 9 23.3
2018-Jul-15 11:35 276 2 gusting 8 23.3
2018-Jul-15 11:30 298 1 gusting 9 23.3
2018-Jul-15 11:25 311 5 gusting 9 23.3
2018-Jul-15 11:20 268 4 gusting 9 23.3
2018-Jul-15 11:15 264 3 gusting 8 23.3
2018-Jul-15 11:10 268 4 gusting 8 23.3
2018-Jul-15 11:05 183 2 gusting 8 23.9
2018-Jul-15 11:00 261 3 gusting 8 23.9
2018-Jul-15 10:55 274 1 gusting 7 23.9
2018-Jul-15 10:50 274 2 gusting 7 23.9
2018-Jul-15 10:45 293 3 gusting 6 23.9
2018-Jul-15 10:40 274 1 gusting 5 23.9
2018-Jul-15 10:35 285 2 gusting 8 23.9
2018-Jul-15 10:30 275 1 gusting 8 23.9
2018-Jul-15 10:25 258 3 gusting 8 23.9
2018-Jul-15 10:20 271 3 gusting 8 23.9
2018-Jul-15 10:15 283 4 gusting 7 23.9
2018-Jul-15 10:10 264 3 gusting 11 23.9
2018-Jul-15 10:05 298 3 gusting 11 23.9
2018-Jul-15 10:00 287 3 gusting 9 23.9
2018-Jul-15 09:55 295 3 gusting 8 23.9
2018-Jul-15 09:50 281 0 gusting 9 23.9
2018-Jul-15 09:45 258 5 gusting 9 23.9
2018-Jul-15 09:40 279 4 gusting 8 23.9
2018-Jul-15 09:35 275 5 gusting 8 23.9
2018-Jul-15 09:30 278 0 gusting 7 23.9
2018-Jul-15 09:25 273 2 gusting 8 23.9
2018-Jul-15 09:20 278 4 gusting 9 23.9
2018-Jul-15 09:15 300 5 gusting 9 23.9
2018-Jul-15 09:11 290 1 gusting 7 23.9
2018-Jul-15 09:05 239 3 23.9
2018-Jul-15 09:00 293 2 23.9
2018-Jul-15 08:55 261 1 23.3
2018-Jul-15 08:50 224 0 23.3
2018-Jul-15 08:45 288 1 23.3
2018-Jul-15 08:40 277 2 23.3
2018-Jul-15 08:35 285 1 23.3
2018-Jul-15 08:30 326 1 23.3
2018-Jul-15 08:25 266 0 23.3
2018-Jul-15 08:20 214 0 23.3
2018-Jul-15 08:15 216 1 22.8
2018-Jul-15 08:10 251 1 22.8
2018-Jul-15 08:00 238 1 22.2
2018-Jul-15 07:55 251 1 gusting 5 22.2
2018-Jul-15 07:50 279 22.2
2018-Jul-15 07:45 230 22.2
2018-Jul-15 07:40 245 0 gusting 4 22.2
2018-Jul-15 07:35 230 0 gusting 4 22.2
2018-Jul-15 07:30 277 2 gusting 5 22.2
2018-Jul-15 07:25 214 1 gusting 5 21.7
2018-Jul-15 07:20 234 21.7
2018-Jul-15 07:15 231 21.7
2018-Jul-15 07:10 230 21.7
2018-Jul-15 07:05 231 21.7
2018-Jul-15 07:00 255 21.7
2018-Jul-15 06:55 221 21.7
2018-Jul-15 06:50 224 2 gusting 5 21.7
2018-Jul-15 06:45 233 21.1
2018-Jul-15 06:40 221 2 gusting 6 21.1
2018-Jul-15 06:35 238 1 gusting 6 21.1
2018-Jul-15 06:31 239 21.1
2018-Jul-15 06:25 242 0 21.1
2018-Jul-15 06:20 242 21.1
2018-Jul-15 06:15 242 21.1
2018-Jul-15 06:10 244 21.1
2018-Jul-15 06:05 243 21.1
2018-Jul-15 06:00 243 21.1
2018-Jul-15 05:55 243 21.1
2018-Jul-15 05:50 243 20.6
2018-Jul-15 05:45 243 20.6
2018-Jul-15 05:40 244 20.6
2018-Jul-15 05:35 240 20.6
2018-Jul-15 05:30 243 20.6
2018-Jul-15 05:25 244 20.6
2018-Jul-15 05:20 243 0 20.6
2018-Jul-15 05:15 243 0 20.6
2018-Jul-15 05:10 245 0 20.6
2018-Jul-15 05:05 247 0 20.6
2018-Jul-15 05:00 240 1 20.6
2018-Jul-15 04:55 246 1 20.6
2018-Jul-15 04:50 256 0 20.6
2018-Jul-15 04:45 226 20.6
2018-Jul-15 04:35 236 0 20.6
2018-Jul-15 04:30 230 0 20.6
2018-Jul-15 04:25 248 0 20.6
2018-Jul-15 04:20 262 20.6
2018-Jul-15 04:15 279 20.6
2018-Jul-15 04:10 282 20.6
2018-Jul-15 04:05 281 20.6
2018-Jul-15 04:00 283 20.6
2018-Jul-15 03:55 281 20.6
2018-Jul-15 03:50 284 20.6
2018-Jul-15 03:45 281 20.6
2018-Jul-15 03:40 282 20.6
2018-Jul-15 03:35 360 20.6
2018-Jul-15 03:30 283 20.6
2018-Jul-15 03:25 283 20.6
2018-Jul-15 03:20 283 20.6
2018-Jul-15 03:15 282 20.6
2018-Jul-15 03:10 283 20.6
2018-Jul-15 03:05 283 20.6
2018-Jul-15 03:00 283 20.6
2018-Jul-15 02:55 283 20.6
2018-Jul-15 02:50 282 20.6
2018-Jul-15 02:45 287 20.6
2018-Jul-15 02:40 285 20.6
2018-Jul-15 02:35 283 20.6
2018-Jul-15 02:30 288 21.1
2018-Jul-15 02:25 285 21.1
2018-Jul-15 02:20 288 21.1
2018-Jul-15 02:15 286 21.1
2018-Jul-15 02:10 287 21.1
2018-Jul-15 02:05 286 21.1
2018-Jul-15 02:00 286 21.1
2018-Jul-15 01:55 287 21.1
2018-Jul-15 01:50 285 21.1
2018-Jul-15 01:45 286 21.1
2018-Jul-15 01:40 286 21.1
2018-Jul-15 01:35 285 21.1
2018-Jul-15 01:30 360 21.1
2018-Jul-15 01:25 286 21.1
2018-Jul-15 01:20 206 21.1
2018-Jul-15 01:15 206 21.1
2018-Jul-15 01:10 206 21.1
2018-Jul-15 01:05 206 0 21.1
2018-Jul-15 01:00 207 21.1
2018-Jul-15 00:55 206 21.1
2018-Jul-15 00:50 207 21.1
2018-Jul-15 00:45 207 0 21.1
2018-Jul-15 00:40 206 0 21.7
2018-Jul-15 00:35 206 21.7
2018-Jul-15 00:30 206 21.7
2018-Jul-15 00:25 207 21.7
2018-Jul-15 00:20 206 0 21.7
2018-Jul-15 00:15 206 0 gusting 3 21.7
2018-Jul-15 00:10 206 21.7
2018-Jul-15 00:05 207 21.7
2018-Jul-15 00:00 206 21.7
2018-Jul-14 23:55 206 21.7
2018-Jul-14 23:50 204 21.7
2018-Jul-14 23:45 206 21.7
2018-Jul-14 23:40 205 21.7
2018-Jul-14 23:35 206 21.7
2018-Jul-14 23:30 226 1 gusting 4 21.7
2018-Jul-14 23:25 286 0 gusting 3 21.7
2018-Jul-14 23:20 285 0 gusting 3 21.7
2018-Jul-14 23:15 285 21.7
2018-Jul-14 23:10 286 21.7
2018-Jul-14 23:05 285 21.7
2018-Jul-14 23:00 285 21.7
2018-Jul-14 22:55 285 22.2
2018-Jul-14 22:50 286 22.2
2018-Jul-14 22:45 284 22.2
2018-Jul-14 22:40 285 22.2
2018-Jul-14 22:35 284 22.2
2018-Jul-14 22:30 285 22.2
2018-Jul-14 22:25 285 22.2
2018-Jul-14 22:20 286 22.2
2018-Jul-14 22:15 285 2 gusting 3 22.2
2018-Jul-14 22:11 286 22.2
2018-Jul-14 22:05 288 22.2
2018-Jul-14 22:00 287 22.2
2018-Jul-14 21:55 285 22.2
2018-Jul-14 21:50 288 22.2
2018-Jul-14 21:45 289 22.2
2018-Jul-14 21:40 287 22.2
2018-Jul-14 21:35 284 22.2
2018-Jul-14 21:30 288 22.2
2018-Jul-14 21:25 287 22.2
2018-Jul-14 21:20 288 22.2
2018-Jul-14 21:15 360 22.2
2018-Jul-14 21:10 286 22.2
2018-Jul-14 21:05 288 22.8
2018-Jul-14 21:00 287 22.8
2018-Jul-14 20:50 287 22.8
2018-Jul-14 20:45 288 22.8
2018-Jul-14 20:40 288 22.8
2018-Jul-14 20:35 287 22.8
2018-Jul-14 20:30 286 22.8
2018-Jul-14 20:25 288 22.8
2018-Jul-14 20:20 285 1 gusting 2 22.8
2018-Jul-14 20:15 288 22.8
2018-Jul-14 20:10 288 22.8
2018-Jul-14 20:05 287 22.8
2018-Jul-14 20:00 287 22.8
2018-Jul-14 19:55 286 23.3
2018-Jul-14 19:50 287 23.3
2018-Jul-14 19:45 285 23.3
2018-Jul-14 19:40 288 23.3
2018-Jul-14 19:35 290 0 gusting 3 23.3
2018-Jul-14 19:30 288 23.3
2018-Jul-14 19:25 288 0 gusting 4 23.3
2018-Jul-14 19:20 299 23.3
2018-Jul-14 19:15 300 23.3
2018-Jul-14 19:10 300 23.3
2018-Jul-14 19:05 300 0 gusting 4 23.3
2018-Jul-14 19:00 300 1 gusting 5 23.9
2018-Jul-14 18:55 295 3 gusting 5 23.9
2018-Jul-14 18:50 311 1 gusting 4 23.9
2018-Jul-14 18:45 311 2 gusting 4 23.9
2018-Jul-14 18:40 316 1 gusting 4 23.9
2018-Jul-14 18:35 318 1 gusting 4 23.9
2018-Jul-14 18:30 323 3 gusting 6 23.9
2018-Jul-14 18:25 309 3 gusting 6 23.9
2018-Jul-14 18:20 330 2 gusting 5 23.9
2018-Jul-14 18:10 331 2 gusting 5 23.9
2018-Jul-14 18:05 328 3 gusting 5 23.9
2018-Jul-14 18:00 333 3 gusting 5 23.9
2018-Jul-14 17:55 357 23.9
2018-Jul-14 17:50 358 2 gusting 5 24.4
2018-Jul-14 17:45 358 3 gusting 5 24.4
2018-Jul-14 17:40 345 1 gusting 4 24.4
2018-Jul-14 17:35 343 1 gusting 4 24.4
2018-Jul-14 17:30 342 1 gusting 4 24.4
2018-Jul-14 17:25 344 24.4
2018-Jul-14 17:20 342 3 gusting 5 24.4
2018-Jul-14 17:15 323 2 gusting 5 24.4
2018-Jul-14 17:10 322 2 gusting 4 24.4
2018-Jul-14 17:05 323 0 gusting 4 24.4
2018-Jul-14 17:00 322 3 gusting 4 24.4
2018-Jul-14 16:50 335 3 gusting 8 24.4
2018-Jul-14 16:45 341 4 gusting 8 24.4
2018-Jul-14 16:40 360 5 gusting 8 24.4
2018-Jul-14 16:35 352 3 gusting 8 24.4
2018-Jul-14 16:30 358 5 gusting 8 24.4
2018-Jul-14 16:25 359 5 gusting 8 24.4
2018-Jul-14 16:20 012 5 gusting 8 25.0
2018-Jul-14 16:15 018 4 gusting 6 25.0
2018-Jul-14 16:10 356 4 gusting 6 25.0
2018-Jul-14 16:05 359 3 gusting 6 25.0
2018-Jul-14 16:00 360 3 gusting 5 25.0
2018-Jul-14 15:55 335 3 gusting 6 25.0
2018-Jul-14 15:50 337 2 gusting 6 24.4
2018-Jul-14 15:45 360 3 gusting 6 24.4
2018-Jul-14 15:40 358 4 gusting 6 24.4
2018-Jul-14 15:35 360 3 gusting 7 25.0
2018-Jul-14 15:30 354 2 gusting 8 25.0
2018-Jul-14 15:25 357 4 gusting 8 25.0
2018-Jul-14 15:20 360 3 gusting 6 25.0
2018-Jul-14 15:15 360 4 gusting 6 25.0
2018-Jul-14 15:11 354 4 gusting 6 25.0
2018-Jul-14 15:05 003 4 gusting 7 25.0
2018-Jul-14 15:00 007 5 gusting 7 25.0